Regional Weather Roundup
Issued by NWS Albany, NY

Home | Current Version | Previous Version | Graphics & Text | Print | Product List | Glossary Off
Versions: 1 2 3 4 5 6 7 8 9 10 11 12 13 14 15 16 17 18 19 20 21 22 23 24 25 26 27 28 29 30 31 32 33 34 35 36 37 38 39 40 41 42 43 44 45 46 47 48 49 50

000
ASUS41 KALY 161810
RWRALY

NEW YORK STATE HOURLY WEATHER ROUNDUP
NATIONAL WEATHER SERVICE ALBANY NY
100 PM EST MON JAN 16 2017

NOTE: "FAIR" INDICATES FEW OR NO CLOUDS BELOW 12,000 FEET WITH NO
SIGNIFICANT WEATHER AND/OR NO OBSTRUCTIONS TO VISIBILITY.

NYZ032-033-038>043-046>054-057>066-NYZ062>081-082-084-161900-
EAST


CITY           SKY/WX    TMP DP  RH WIND       PRES   REMARKS
ALBANY         MOSUNNY   35  18  49 S8        30.34F WCI  29
GLENS FALLS    CLOUDY    34  18  52 S12       30.30F WCI  25
POUGHKEEPSIE   SUNNY     37  20  50 SW8       30.36F WCI  31
NEWBURGH       SUNNY     37  23  56 W9        30.37F WCI  31
MONTGOMERY     SUNNY     40  23  50 SW12      30.34F WCI  33
WHITE PLAINS   SUNNY     38  19  46 W7        30.36F WCI  33
ISLIP          PTSUNNY   41  20  43 SW8       30.39F
NEW YORK CITY  PTSUNNY   42  21  43 SW8       30.39F
CENTRAL PARK   SUNNY     40  21  46 W7        30.41F
$$

NYZ005>009-017-018-044>046-055-056-161900-
CENTRAL


CITY           SKY/WX    TMP DP  RH WIND       PRES   REMARKS
FULTON         CLOUDY    37  18  46 S6        30.31F WCI  32
SYRACUSE       PTSUNNY   39  16  39 W8        30.31F WCI  33
ROME           SUNNY     35  21  56 CALM      30.34F
ELMIRA         SUNNY     38  20  48 E3        30.31F
BINGHAMTON     SUNNY     34  18  52 SW10      30.28F WCI  26
MONTICELLO     SUNNY     34  18  51 W8        30.33F WCI  27
$$

NYZ026>034-041>043-087-161900-
NORTH


CITY           SKY/WX    TMP DP  RH WIND       PRES   REMARKS
WATERTOWN      CLOUDY    35  27  72 SW15      30.28F WCI  25
FORT DRUM      NOT AVBL
OGDENSBURG     FAIR      39  28  66 SW14G22   30.24F WCI  31
MASSENA        SUNNY     37  26  64 SW18G29   30.22F WCI  27
SARANAC LAKE   SUNNY     34  16  47 SW13      30.16F WCI  25
PLATTSBURGH    SUNNY     34  19  54 SE17      30.19F WCI  23
$$

NYZ001>004-010>016-019>021-085-161900-
WEST


CITY           SKY/WX    TMP DP  RH WIND       PRES   REMARKS
NIAGARA FALLS  CLOUDY    38  25  59 SW12      30.31F WCI  30
BUFFALO        PTSUNNY   35  22  58 SW10      30.31F WCI  27
DUNKIRK        CLOUDY    37  18  46 W6        30.31F WCI  32
JAMESTOWN      CLOUDY    34  19  55 CALM      30.26F
WELLSVILLE     SUNNY     40  10  29 VRB6      30.27F
ROCHESTER      PTSUNNY   39  22  50 SW8       30.31F WCI  33
PENN YAN       SUNNY     39  18  42 SW6       30.29F WCI  35
$$

             KEY
       WCI = WIND CHILL INDEX
       VSB = VISIBILITY
       HX  = HEAT INDEX
$$



USA.gov is the U.S. government's official web portal to all federal, state and local government web resources and services.